Weather History for La Paz, B. C. S., Mexico

Change the Weather History Date:

Monday, October 8, 2012

  Actual Average Record
Temperature  
Mean Temperature 85 °F -  
Max Temperature 97 °F 88 °F - ()
Min Temperature 73 °F 65 °F - ()
Cooling Degree Days 20    
Growing Degree Days 35 (Base 50)    
Moisture  
Dew Point 60 °F    
Average Humidity 51    
Maximum Humidity 94    
Minimum Humidity 15    
Precipitation  
Precipitation 0.00 in - - ()
Sea Level Pressure  
Sea Level Pressure 29.92 in    
Wind  
Wind Speed 6 mph ()    
Max Wind Speed 12 mph    
Max Gust Speed -    
Visibility 10.5 miles    
Events      
T = Trace of Precipitation, MM = Missing Value Source: Averaged Metar Reports

Daily Weather History Graph

Daily Weather History Graph

Search for Another Location

Airport:

Trip Planner

Search our weather history database for the weather conditions in past years. The results will help you decide how hot, cold, wet, or windy it might be!

Date:

Astronomy

Oct. 08, 2012 Rise Set
Actual Time 7:16 AM MDT 7:00 PM MDT
Civil Twilight 6:53 AM MDT 7:23 PM MDT
Nautical Twilight 6:27 AM MDT 7:49 PM MDT
Astronomical Twilight 6:00 AM MDT 8:16 PM MDT
Moon 12:40 AM MDT (10/8) 2:13 PM MDT (10/8)
Length of Visible Light 12h 30m
Length of Day
11h 44m
Last Quarter, 46% of the Moon is Illuminated
Oct 8
Last Quarter
Oct 15
New
Oct 21
First Quarter
Oct 29
Full
Nov 6
Last Quarter

Hourly Weather History & Observations

Time (MDT) Temp. Heat Index Dew Point Humidity Pressure Visibility Wind Dir Wind Speed Gust Speed Precip Events Conditions
2:50 AM 76 °F - 69 °F 72% 29.86 in 2 mi South 2.2 mph - -  
5:50 AM 75 °F - 64 °F 61% 29.90 in 2 mi South 4.5 mph - -  
6:09 AM 66.2 °F - 64.4 °F 94% 29.94 in 10.0 mi South 8.1 mph - N/A   Clear
6:45 AM 66.2 °F - 62.6 °F 88% 29.91 in 10.0 mi South 6.9 mph - N/A   Clear
7:41 AM 66.2 °F - 62.6 °F 88% 29.93 in 10.0 mi South 6.9 mph - N/A   Clear
8:40 AM 77 °F - 64 °F 55% 29.98 in 16 mi South 6.7 mph - -  
8:45 AM 71.6 °F - 64.4 °F 78% 29.99 in 10.0 mi South 10.4 mph - N/A   Clear
9:51 AM 78.8 °F - 62.6 °F 57% 29.95 in 10.0 mi South 10.4 mph - N/A   Clear
10:42 AM 82.4 °F 82.5 °F 59.0 °F 45% 29.95 in 12.0 mi SSW 5.8 mph - N/A   Clear
11:40 AM 86.0 °F 84.9 °F 57.2 °F 37% 30.00 in 12.0 mi South 4.6 mph - N/A   Clear
11:50 AM 89 °F - 60 °F 28% 29.94 in 19 mi South 4.5 mph - -  
12:44 PM 87.8 °F 86.1 °F 55.4 °F 33% 29.92 in 12.0 mi SW 9.2 mph - N/A   Clear
1:40 PM 91.4 °F 89.1 °F 53.6 °F 28% 29.90 in 12.0 mi SW 11.5 mph - N/A   Clear
2:43 PM 93.2 °F - 51.8 °F 24% 29.93 in 12.0 mi SW 6.9 mph - N/A   Partly Cloudy
2:50 PM 95 °F - 59 °F 21% 29.87 in 19 mi South 4.5 mph - -  
3:40 PM 93.2 °F - 46.4 °F 20% 29.86 in 12.0 mi SSW 3.5 mph - N/A   Partly Cloudy
4:48 PM 93.2 °F - 46.4 °F 20% 29.86 in 10.0 mi West 9.2 mph - N/A   Clear
5:50 PM 96 °F - 53 °F 15% 29.86 in 19 mi SSW 6.7 mph - -  
6:43 PM 87.8 °F - 51.8 °F 29% 29.88 in 10.0 mi SW 6.9 mph - N/A   Clear
7:57 PM 78.8 °F - 62.6 °F 57% 29.91 in 10.0 mi SSW 6.9 mph - N/A   Clear
8:43 PM 77.0 °F - 64.4 °F 65% 30.03 in 10.0 mi South 6.9 mph - N/A   Clear
8:50 PM 82 °F - 68 °F 53% 29.92 in 2 mi South 4.5 mph - -  
9:44 PM 73.4 °F - 64.4 °F 73% 29.95 in 10.0 mi SE 9.2 mph - N/A   Clear
10:45 PM 73.4 °F - 66.2 °F 78% 29.95 in 10.0 mi SSE 6.9 mph - N/A   Clear
11:50 PM 77 °F - 69 °F 68% 29.92 in 2 mi South 6.7 mph - -